Location: Karcze
(52.0945°N, 22.4786°E)
Time: 01:45:27
(UTC+00:00)

A-11 Canister half - Pass Details

Date: 06 August 2021
Orbit: 1514 x 1685 km, 47.2° (Epoch: 16 September)

Event Time Altitude Azimuth Distance (km) Brightness Sun altitude
Rises 14:57:39 0° 236° (WSW) 4,760 12.6 28.0°
Reaches altitude 10° 15:00:46 10° 233° (SW) 3,800 12.2 27.5°
Maximum altitude 15:10:07 56° 159° (SSE) 1,900 9.8 26.1°
Drops below altitude 10° 15:19:48 10° 85° (E) 3,928 10.7 24.6°
Sets 15:23:04 0° 81° (E) 4,930 11.1 24.1°
